Location: Caltech
(34.1382°N, 118.1253°W)
Time: 23:58:41
(UTC-08:00)

A-11 Canister half - All Passes

Search period start: 23 February 2018 00:00
Search period end: 05 March 2018 00:00
Orbit: 1515 x 1685 km, 47.2° (Epoch: 23 February)

Date Brightness Start Highest point End Pass type
(mag) Time Alt. Az. Time Alt. Az. Time Alt. Az.
23 Feb - 00:28:19 10° WNW 00:37:20 38° N 00:46:04 10° ENE visible
23 Feb - 02:35:08 10° NW 02:44:20 46° NNE 02:53:14 10° E visible
23 Feb - 04:40:23 10° NW 04:49:52 78° SW 04:59:05 10° SE visible
23 Feb - 06:47:28 10° W 06:53:36 20° SW 06:59:42 10° SSW daylight
23 Feb - 19:53:46 10° SSW 20:03:06 43° SE 20:12:11 10° ENE visible
23 Feb - 21:57:47 10° WSW 22:07:50 69° NNW 22:17:34 10° NE visible
24 Feb - 00:05:13 10° WNW 00:14:17 39° N 00:23:04 10° ENE visible
24 Feb - 02:12:08 10° NW 02:21:20 45° NNE 02:30:13 10° E visible
24 Feb - 04:17:26 10° NW 04:26:58 82° SW 04:36:13 10° SE visible
24 Feb - 06:24:14 10° W 06:30:47 22° SW 06:37:17 10° S daylight
24 Feb - 19:31:03 10° SSW 19:40:12 40° SE 19:49:10 10° ENE visible
24 Feb - 21:34:46 10° WSW 21:44:52 72° NNW 21:54:39 10° NE visible
24 Feb - 23:42:07 10° WNW 23:51:15 39° N 00:00:06 10° ENE night (unlit)
25 Feb - 01:49:09 10° NW 01:58:19 44° NNE 02:07:11 10° E visible
25 Feb - 03:54:29 10° NW 04:04:04 86° SW 04:13:22 10° SE visible
25 Feb - 06:01:02 10° WNW 06:07:59 24° SW 06:14:51 10° S visible
25 Feb - 19:08:20 10° SSW 19:17:19 37° SE 19:26:09 10° ENE visible
25 Feb - 21:11:45 10° WSW 21:21:53 76° NNW 21:31:45 10° NE visible
25 Feb - 23:19:00 10° WNW 23:28:12 40° N 23:37:08 10° ENE visible
26 Feb - 01:26:09 10° NW 01:35:18 43° NNE 01:44:09 10° E visible
26 Feb - 03:31:32 10° NW 03:41:10 90° NNE 03:50:29 10° SE visible
26 Feb - 05:37:53 10° WNW 05:45:09 26° SW 05:52:20 10° S visible
26 Feb - 18:45:39 10° S 18:54:27 35° SE 19:03:06 10° ENE visible
26 Feb - 20:48:46 10° WSW 20:58:55 79° NW 21:08:49 10° NE visible
26 Feb - 22:55:53 10° W 23:05:09 41° NNW 23:14:09 10° ENE visible
27 Feb - 01:03:08 10° NW 01:12:17 42° NNE 01:21:07 10° E visible
27 Feb - 03:08:36 10° NW 03:18:16 86° NE 03:27:35 10° SE visible
27 Feb - 05:14:45 10° WNW 05:22:20 28° SW 05:29:48 10° S visible
27 Feb - 18:23:00 10° S 18:31:35 32° SE 18:40:02 10° ENE visible
27 Feb - 20:25:47 10° SW 20:35:58 83° NW 20:45:55 10° NE visible
27 Feb - 22:32:46 10° W 22:42:07 42° NNW 22:51:12 10° NE visible
28 Feb - 00:40:07 10° NW 00:49:16 41° NNE 00:58:05 10° E visible
28 Feb - 02:45:39 10° NW 02:55:20 82° NE 03:04:41 10° ESE visible
28 Feb - 04:51:38 10° WNW 04:59:31 31° SW 05:07:14 10° S visible
28 Feb - 18:00:22 10° S 18:08:42 30° SE 18:16:56 10° ENE visible
28 Feb - 20:02:49 10° SW 20:13:01 87° NW 20:22:59 10° NE visible
28 Feb - 22:09:39 10° W 22:19:05 43° NNW 22:28:14 10° NE visible
01 Mar - 00:17:06 10° WNW 00:26:14 40° N 00:35:03 10° E night (unlit)
01 Mar - 02:22:42 10° NW 02:32:25 78° NE 02:41:46 10° ESE visible
01 Mar - 04:28:33 10° WNW 04:36:41 33° SW 04:44:38 10° S visible
01 Mar - 17:37:47 10° S 17:45:50 28° SE 17:53:49 10° ENE daylight
01 Mar - 19:39:52 10° SW 19:50:04 89° SE 20:00:03 10° NE visible
01 Mar - 21:46:33 10° W 21:56:02 44° NNW 22:05:16 10° NE visible
01 Mar - 23:54:03 10° WNW 00:03:11 40° N 00:12:01 10° ENE visible
02 Mar - 01:59:45 10° NW 02:09:29 74° NNE 02:18:50 10° ESE visible
02 Mar - 04:05:30 10° WNW 04:13:51 36° SW 04:22:02 10° SSE visible
02 Mar - 17:15:13 10° S 17:22:59 26° SE 17:30:40 10° ENE daylight
02 Mar - 19:16:55 10° SW 19:27:07 85° SE 19:37:08 10° NE visible
02 Mar - 21:23:26 10° W 21:33:00 45° NNW 21:42:20 10° NE visible
02 Mar - 23:31:01 10° WNW 23:40:09 39° N 23:48:59 10° ENE visible
03 Mar - 01:36:47 10° NW 01:46:32 71° NNE 01:55:55 10° ESE visible
03 Mar - 03:42:26 10° WNW 03:51:01 39° SW 03:59:22 10° SSE visible
03 Mar - 16:52:42 10° S 17:00:07 23° SE 17:07:29 10° ENE daylight
03 Mar - 18:53:59 10° SW 19:04:11 81° SE 19:14:12 10° NE visible
03 Mar - 21:00:21 10° W 21:09:58 47° NNW 21:19:22 10° NE visible
03 Mar - 23:07:57 10° WNW 23:17:06 39° N 23:25:57 10° ENE visible
04 Mar - 01:13:50 10° NW 01:23:35 68° NNE 01:32:58 10° ESE visible
04 Mar - 03:19:24 10° WNW 03:28:11 42° SW 03:36:42 10° SSE visible
04 Mar - 16:30:14 10° S 16:37:15 21° SE 16:44:15 10° E daylight
04 Mar - 18:31:05 10° SW 18:41:15 77° SE 18:51:15 10° NE visible
04 Mar - 20:37:14 10° W 20:46:57 48° NNW 20:56:26 10° NE visible
04 Mar - 22:44:54 10° WNW 22:54:03 39° N 23:02:54 10° ENE visible
